User: anonymous   Login
Location: Caltech
(34.1382°N, 118.1253°W)
Time: 08:00:30
(UTC-07:00)
Language:

NOSS 3-1 (C) - Orbit

View from above orbital plane
View from above orbital plane
View from above satellite
View from above satellite

Ground track
Ground track

The orbit data is extracted from the following two-line orbital elements,

1 26907U 01040C   16178.94428642 0.00000000  00000-0  00000-0 0    04
2 26907  63.4178 216.3667 0338000 358.6199   1.3801 13.41254417    06
Epoch (UTC): 26 June 2016 22:39:46
Eccentricity: 0.0338000
inclination: 63.4178°
perigee height: 851 km
apogee height: 1357 km
right ascension of ascending node: 216.3667°
argument of perigee: 358.6199°
revolutions per day: 13.41254417
mean anomaly at epoch: 1.3801°
orbit number at epoch: 0

The dashed part of the orbit path shows where the satellite is in the earth's shadow,  

DLR